| time (UTC) | temp F | wind direction | speed MPH | gust MPH | rain 1hr in | rain 24hr in | rain mn in | humidity % | barometer mb |
| 20260506163110 | 63 | 194 | 1.0 | 4.0 | 0.00 | 0.11 | 0.03 | 71 | 1014.6 |
| 20260506161601 | 61 | 261 | 1.0 | 4.0 | 0.00 | 0.11 | 0.03 | 75 | 1014.6 |
| 20260506160109 | 62 | 203 | 1.0 | 4.0 | 0.00 | 0.11 | 0.03 | 74 | 1014.6 |
| 20260506154555 | 61 | 176 | 1.0 | 4.0 | 0.00 | 0.11 | 0.03 | 79 | 1014.7 |
| 20260506153050 | 60 | 110 | 1.0 | 4.0 | 0.00 | 0.11 | 0.03 | 80 | 1014.6 |
| 20260506151551 | 59 | 176 | 1.0 | 3.0 | 0.00 | 0.11 | 0.03 | 81 | 1014.9 |
| 20260506150053 | 59 | 176 | 0.0 | 1.0 | 0.00 | 0.11 | 0.03 | 83 | 1015.1 |
| 20260506144606 | 58 | 0 | 1.0 | 4.0 | 0.00 | 0.11 | 0.03 | 82 | 1015.1 |
| 20260506143103 | 59 | 163 | 0.0 | 3.0 | 0.00 | 0.11 | 0.03 | 83 | 1015.4 |
| 20260506141550 | 60 | 146 | 0.0 | 3.0 | 0.00 | 0.11 | 0.02 | 82 | 1015.5 |
| 20260506140054 | 60 | 77 | 0.0 | 3.0 | 0.00 | 0.11 | 0.02 | 79 | 1015.5 |
| 20260506134556 | 61 | 209 | 1.0 | 4.0 | 0.00 | 0.11 | 0.02 | 76 | 1015.3 |
| 20260506133052 | 61 | 195 | 2.0 | 8.0 | 0.00 | 0.11 | 0.02 | 77 | 1015.3 |
| 20260506131556 | 60 | 148 | 2.0 | 4.0 | 0.00 | 0.11 | 0.02 | 77 | 1015.5 |
| 20260506130059 | 60 | 196 | 2.0 | 7.0 | 0.00 | 0.11 | 0.02 | 78 | 1015.3 |
| 20260506124552 | 60 | 308 | 2.0 | 5.0 | 0.00 | 0.11 | 0.02 | 78 | 1015.2 |
| 20260506123055 | 60 | 193 | 3.0 | 8.0 | 0.00 | 0.11 | 0.02 | 78 | 1015.0 |
| 20260506121557 | 60 | 324 | 3.0 | 7.0 | 0.00 | 0.11 | 0.02 | 75 | 1014.9 |
| 20260506120053 | 61 | 202 | 2.0 | 5.0 | 0.00 | 0.11 | 0.02 | 75 | 1015.0 |
| 20260506114556 | 61 | 358 | 2.0 | 9.0 | 0.00 | 0.11 | 0.02 | 74 | 1015.0 |
| 20260506113054 | 61 | 46 | 2.0 | 4.0 | 0.00 | 0.11 | 0.02 | 78 | 1015.0 |
| 20260506111554 | 60 | 172 | 2.0 | 6.0 | 0.00 | 0.11 | 0.02 | 79 | 1015.0 |
| 20260506110050 | 59 | 25 | 3.0 | 7.0 | 0.00 | 0.11 | 0.02 | 81 | 1015.0 |
| 20260506104553 | 60 | 295 | 2.0 | 5.0 | 0.00 | 0.11 | 0.02 | 81 | 1015.0 |
| 20260506103054 | 60 | 260 | 2.0 | 6.0 | 0.00 | 0.10 | 0.01 | 76 | 1015.0 |
| 20260506101554 | 59 | 333 | 2.0 | 10.0 | 0.00 | 0.10 | 0.01 | 76 | 1015.0 |
| 20260506100055 | 60 | 292 | 2.0 | 5.0 | 0.00 | 0.10 | 0.01 | 75 | 1014.9 |
| 20260506094601 | 59 | 283 | 2.0 | 6.0 | 0.00 | 0.10 | 0.01 | 74 | 1014.8 |
| 20260506093052 | 58 | 327 | 2.0 | 5.0 | 0.00 | 0.10 | 0.01 | 75 | 1014.7 |
| 20260506091550 | 58 | 193 | 2.0 | 7.0 | 0.00 | 0.10 | 0.01 | 77 | 1014.6 |
| 20260506090056 | 58 | 8 | 2.0 | 6.0 | 0.00 | 0.10 | 0.01 | 77 | 1014.6 |
| 20260506084612 | 58 | 321 | 2.0 | 5.0 | 0.00 | 0.10 | 0.01 | 77 | 1014.5 |
| 20260506083056 | 58 | 77 | 3.0 | 8.0 | 0.00 | 0.10 | 0.01 | 76 | 1014.5 |
| 20260506081556 | 58 | 302 | 3.0 | 6.0 | 0.00 | 0.10 | 0.01 | 73 | 1014.2 |
| 20260506073057 | 58 | 300 | 4.0 | 9.0 | 0.00 | 0.10 | 0.01 | 73 | 1014.2 |
| 20260506071555 | 58 | 334 | 3.0 | 9.0 | 0.00 | 0.10 | 0.01 | 73 | 1014.1 |
| 20260506061602 | 56 | 176 | 2.0 | 7.0 | 0.00 | 0.10 | 0.01 | 76 | 1014.0 |
| 20260506050106 | 55 | 250 | 2.0 | 7.0 | 0.00 | 0.10 | 0.01 | 78 | 1013.5 |
| 20260506044552 | 55 | 203 | 1.0 | 5.0 | 0.00 | 0.10 | 0.01 | 78 | 1013.6 |
| 20260506043054 | 55 | 330 | 2.0 | 7.0 | 0.00 | 0.10 | 0.01 | 78 | 1013.6 |
| 20260506041553 | 55 | 4 | 1.0 | 7.0 | 0.00 | 0.10 | 0.01 | 79 | 1013.6 |
| 20260506034551 | 55 | 193 | 2.0 | 6.0 | 0.00 | 0.11 | 0.01 | 77 | 1013.7 |
| 20260506033050 | 55 | 252 | 1.0 | 9.0 | 0.00 | 0.11 | 0.01 | 79 | 1013.7 |
| 20260506031553 | 55 | 299 | 1.0 | 6.0 | 0.00 | 0.11 | 0.01 | 79 | 1013.7 |
| 20260506030058 | 55 | 204 | 1.0 | 6.0 | 0.00 | 0.11 | 0.01 | 80 | 1013.8 |
| 20260506024557 | 54 | 278 | 1.0 | 5.0 | 0.00 | 0.13 | 0.01 | 80 | 1013.9 |
| 20260506023054 | 54 | 257 | 1.0 | 6.0 | 0.00 | 0.13 | 0.01 | 81 | 1013.8 |
| 20260506021602 | 54 | 339 | 1.0 | 3.0 | 0.00 | 0.13 | 0.01 | 81 | 1013.7 |
| 20260506020050 | 54 | 255 | 2.0 | 7.0 | 0.00 | 0.13 | 0.01 | 80 | 1013.8 |
| 20260506014550 | 55 | 20 | 2.0 | 7.0 | 0.00 | 0.14 | 0.01 | 81 | 1013.9 |
| 20260506013057 | 55 | 316 | 1.0 | 7.0 | 0.00 | 0.14 | 0.01 | 81 | 1014.0 |
| 20260506011605 | 55 | 148 | 1.0 | 7.0 | 0.00 | 0.14 | 0.01 | 81 | 1014.1 |
| 20260506010053 | 54 | 262 | 1.0 | 4.0 | 0.00 | 0.13 | 0.00 | 84 | 1014.2 |
| 20260506004552 | 54 | 202 | 0.0 | 2.0 | 0.00 | 0.15 | 0.00 | 83 | 1014.3 |
| 20260506003055 | 54 | 0 | 1.0 | 5.0 | 0.00 | 0.15 | 0.00 | 83 | 1014.5 |
| 20260506001555 | 54 | 193 | 0.0 | 3.0 | 0.00 | 0.15 | 0.00 | 84 | 1014.5 |
| 20260506000054 | 54 | 0 | 0.0 | 3.0 | 0.00 | 0.15 | 0.00 | 83 | 1014.5 |
| 20260505234605 | 54 | 307 | 1.0 | 3.0 | 0.00 | 0.16 | 0.00 | 83 | 1014.4 |
| 20260505233051 | 54 | 293 | 1.0 | 4.0 | 0.00 | 0.16 | 0.00 | 84 | 1014.4 |
| 20260505231604 | 54 | 247 | 0.0 | 4.0 | 0.00 | 0.16 | 0.00 | 83 | 1014.4 |
| 20260505230053 | 54 | 321 | 1.0 | 4.0 | 0.00 | 0.15 | 0.00 | 83 | 1014.4 |
| 20260505224553 | 53 | 169 | 1.0 | 3.0 | 0.00 | 0.15 | 0.00 | 84 | 1014.4 |
| 20260505223103 | 53 | 0 | 0.0 | 2.0 | 0.00 | 0.15 | 0.00 | 86 | 1014.5 |
| 20260505221559 | 53 | 0 | 0.0 | 2.0 | 0.00 | 0.15 | 0.00 | 86 | 1014.6 |
| 20260505220053 | 53 | 122 | 0.0 | 1.0 | 0.00 | 0.15 | 0.00 | 85 | 1014.7 |
| 20260505214612 | 53 | 0 | 0.0 | 2.0 | 0.00 | 0.15 | 0.15 | 85 | 1014.7 |
| 20260505213102 | 53 | 0 | 0.0 | 1.0 | 0.00 | 0.15 | 0.15 | 85 | 1014.8 |
| 20260505211603 | 54 | 0 | 0.0 | 3.0 | 0.00 | 0.15 | 0.15 | 84 | 1014.9 |
| 20260505210052 | 54 | 254 | 1.0 | 5.0 | 0.00 | 0.15 | 0.15 | 84 | 1015.0 |
| 20260505204555 | 54 | 174 | 0.0 | 4.0 | 0.00 | 0.15 | 0.15 | 85 | 1014.9 |
| 20260505203054 | 54 | 176 | 1.0 | 5.0 | 0.02 | 0.15 | 0.15 | 84 | 1014.9 |
| 20260505201557 | 55 | 237 | 1.0 | 5.0 | 0.02 | 0.15 | 0.15 | 85 | 1014.7 |
| 20260505200105 | 55 | 224 | 1.0 | 3.0 | 0.02 | 0.15 | 0.15 | 85 | 1014.7 |
| 20260505194555 | 55 | 278 | 2.0 | 7.0 | 0.01 | 0.14 | 0.14 | 85 | 1014.5 |
| 20260505193046 | 55 | 176 | 1.0 | 4.0 | 0.00 | 0.13 | 0.13 | 84 | 1014.5 |
| 20260505191554 | 55 | 300 | 1.0 | 7.0 | 0.04 | 0.13 | 0.13 | 84 | 1014.3 |
| 20260505190054 | 55 | 306 | 1.0 | 4.0 | 0.06 | 0.13 | 0.13 | 85 | 1014.4 |
| 20260505184556 | 55 | 103 | 0.0 | 2.0 | 0.06 | 0.13 | 0.13 | 85 | 1014.4 |
| 20260505183103 | 56 | 176 | 0.0 | 2.0 | 0.06 | 0.13 | 0.13 | 84 | 1014.3 |
| 20260505181552 | 57 | 0 | 0.0 | 3.0 | 0.01 | 0.08 | 0.08 | 80 | 1014.3 |
| 20260505180053 | 58 | 314 | 1.0 | 5.0 | 0.00 | 0.07 | 0.07 | 75 | 1014.3 |
| 20260505174601 | 59 | 231 | 2.0 | 5.0 | 0.00 | 0.07 | 0.07 | 73 | 1014.4 |
| 20260505173054 | 60 | 306 | 1.0 | 5.0 | 0.00 | 0.07 | 0.07 | 75 | 1014.3 |
| 20260505171550 | 58 | 293 | 3.0 | 8.0 | 0.00 | 0.07 | 0.07 | 73 | 1014.2 |
| 20260505170052 | 58 | 353 | 2.0 | 5.0 | 0.00 | 0.07 | 0.07 | 74 | 1014.3 |
| 20260505164555 | 59 | 293 | 1.0 | 4.0 | 0.00 | 0.07 | 0.07 | 74 | 1014.5 |